Date,TemperatureHighF,TemperatureAvgF,TemperatureLowF,DewpointHighF,DewpointAvgF,DewpointLowF,HumidityHigh,HumidityAvg,HumidityLow,PressureMaxIn,PressureMinIn,WindSpeedMaxMPH,WindSpeedAvgMPH,GustSpeedMaxMPH,PrecipitationSumIn
2013-1-1,52.6,41.4,35.4,36.3,33.9,31.4,92,76,47,30.29,30.20,6,1,0,0.00
2013-1-2,55.5,41.5,32.4,37.3,33.2,27.6,89,74,38,30.26,30.14,3,0,0,0.00
2013-1-3,54.1,41.7,31.5,38.8,35.0,28.6,90,78,52,30.27,30.18,3,0,0,0.00
2013-1-4,54.9,42.9,33.7,42.6,37.6,31.1,92,82,59,30.31,30.18,2,0,0,0.00
2013-1-5,51.7,44.0,36.1,43.6,40.4,33.4,94,88,71,30.28,30.10,6,1,0,0.60
2013-1-6,51.5,45.8,39.8,46.0,42.4,38.2,95,88,75,30.18,30.08,5,1,0,0.23
2013-1-7,49.4,42.5,36.7,43.5,40.1,35.4,96,92,77,30.26,30.14,5,0,0,0.01
2013-1-8,56.4,45.5,37.6,45.9,41.1,35.9,95,85,66,30.26,30.14,5,0,0,0.01
2013-1-9,49.9,45.5,39.7,46.6,41.3,34.4,93,86,67,30.17,29.92,14,1,0,0.00
2013-1-10,50.7,41.1,33.2,37.8,32.5,28.3,91,73,44,30.15,30.03,14,1,0,0.00
2013-1-11,50.6,39.8,30.3,34.2,30.0,27.2,89,70,42,30.24,30.12,11,0,0,0.00
2013-1-12,47.7,39.7,32.6,33.5,27.0,17.0,86,63,32,30.25,30.14,9,1,0,0.00
2013-1-13,45.1,37.0,27.9,30.5,25.8,20.3,87,65,43,30.27,30.16,11,2,0,0.00
2013-1-14,49.9,38.8,32.4,22.8,20.5,16.9,67,49,29,30.41,30.20,11,3,0,0.00
2013-1-15,48.9,42.9,37.5,33.1,32.3,31.4,81,67,52,30.44,30.42,1,0,0,0.00
2013-1-16,57.4,42.8,32.0,36.0,33.0,28.4,87,70,44,30.45,30.28,5,0,0,0.00
2013-1-17,60.9,44.6,31.6,39.3,33.9,28.5,89,69,35,30.30,30.16,4,0,0,0.00
2013-1-22,62.3,54.8,46.7,42.6,41.6,39.8,82,62,46,30.13,30.02,2,0,0,0.00
2013-1-23,57.9,49.9,45.9,48.5,44.2,40.9,93,81,58,30.09,29.98,6,1,0,0.14
2013-1-24,54.4,51.3,48.0,52.0,49.2,46.2,94,92,85,30.19,30.06,5,1,0,0.09
2013-1-25,65.2,57.2,51.9,55.6,53.3,50.6,97,87,67,30.19,30.02,4,1,0,0.00
2013-1-26,61.4,52.8,45.1,52.6,46.6,38.8,97,81,50,30.02,29.92,3,0,0,0.01
2013-1-27,54.1,24.0,39.1,39.3,-30.6,-99.9,87,35,44,30.15,30.00,8,-494,0,0.00
2013-1-28,57.9,28.0,43.9,37.7,-26.4,-99.9,76,31,41,30.25,30.12,8,-456,0,0.00
2013-1-29,60.7,43.5,39.1,40.7,19.7,-99.9,86,56,39,30.32,30.21,8,-128,0,0.00
2013-1-30,61.9,41.8,39.2,44.5,15.8,-99.9,86,57,52,30.35,30.25,2,-179,0,0.00
2013-1-31,64.3,45.3,41.0,46.7,22.5,-99.9,88,61,50,30.31,30.18,2,-146,0,0.00
2013-2-1,66.5,46.3,41.8,48.9,25.0,-99.9,94,64,49,30.22,30.10,2,-140,0,0.00
2013-2-2,64.4,46.7,44.9,46.7,27.8,-99.9,89,66,49,30.28,30.18,2,-115,0,0.00
2013-2-3,62.4,44.9,40.8,48.1,27.4,-99.9,94,70,51,30.23,30.10,4,-115,0,0.00
2013-2-4,63.1,46.2,42.2,48.8,28.2,-99.9,92,68,57,30.17,30.03,3,-116,0,0.00
2013-2-5,57.7,45.0,40.2,46.2,32.6,-99.9,93,76,64,30.11,30.02,5,-68,0,0.01
2013-2-6,44.7,33.7,39.2,42.2,13.4,-99.9,96,75,91,30.17,30.10,3,-186,0,0.00
2013-2-27,62.4,61.2,56.3,39.4,38.5,37.9,53,43,42,30.31,30.28,2,0,3,0.00
2013-3-1,73.1,62.6,54.3,48.0,47.0,45.4,73,58,38,30.24,30.22,1,0,0,0.00
2013-3-2,70.2,61.0,50.8,52.2,48.4,44.6,80,65,46,30.22,30.03,1,0,0,0.00
2013-3-3,65.7,59.7,54.8,54.7,49.8,47.8,78,70,58,30.04,29.98,3,1,0,0.00
2013-3-4,66.3,57.0,48.3,51.8,47.7,40.4,86,71,58,30.12,30.01,4,2,8,0.00
2013-3-5,60.9,52.8,46.1,45.0,42.1,38.1,83,68,46,30.03,29.82,7,3,13,0.07
2013-3-6,59.5,52.0,48.9,45.6,42.5,36.4,87,71,44,30.05,29.83,9,4,17,0.19
2013-3-7,59.6,50.9,41.2,43.5,40.0,35.7,88,68,43,29.99,29.84,6,1,9,0.00
2013-3-8,65.8,52.5,42.0,44.9,39.8,35.3,80,64,34,30.00,29.79,8,3,12,0.00
2013-3-9,71.2,56.3,41.8,44.9,36.4,27.9,89,54,20,30.25,30.01,10,3,14,0.00
2013-3-10,67.7,55.4,42.4,46.4,41.4,34.2,80,61,41,30.35,30.22,3,1,8,0.00
2013-3-11,72.2,58.0,45.9,46.7,44.0,41.0,84,62,33,30.25,30.06,2,0,8,0.00
2013-3-12,77.6,62.4,48.3,51.0,47.2,43.6,84,61,35,30.15,30.03,3,0,8,0.00
2013-3-13,78.6,64.4,49.9,53.9,50.2,45.7,86,62,38,30.15,30.03,4,0,8,0.00
2013-3-14,78.8,64.8,53.7,56.6,51.1,48.3,83,63,40,30.12,30.03,6,1,8,0.00
2013-3-15,76.4,59.0,50.5,52.2,48.0,44.9,81,69,39,30.08,30.00,4,1,7,0.00
2013-3-18,70.2,64.9,54.3,46.0,41.6,36.9,68,44,30,30.08,29.98,4,1,6,0.00
2013-3-19,57.7,52.9,48.6,46.3,44.2,42.7,81,72,63,30.08,30.02,2,0,5,0.00
2013-3-20,63.2,58.2,52.4,57.1,53.8,49.4,95,85,70,30.09,30.04,6,2,9,0.26
2013-3-21,68.0,56.1,44.9,49.3,40.2,25.9,93,62,22,30.09,29.96,8,3,11,0.00
2013-3-22,66.6,56.4,46.5,30.4,25.1,14.8,46,32,15,30.07,29.98,13,7,23,0.00
2013-3-23,70.1,55.8,44.4,38.1,29.4,21.5,59,38,16,30.13,30.00,5,2,9,0.00
2013-3-24,74.8,59.2,45.2,47.5,38.5,33.7,73,50,23,30.07,29.91,4,1,6,0.00
2013-3-25,69.8,57.1,49.4,48.3,44.0,39.6,79,63,38,29.97,29.87,8,3,10,0.00
2013-3-26,72.5,58.1,45.9,49.1,45.2,41.3,85,64,39,29.97,29.87,5,2,8,0.00
2013-3-27,70.0,58.6,48.6,52.8,48.2,42.8,83,69,52,29.99,29.91,9,3,13,0.00
2013-3-28,71.5,61.8,55.6,53.5,51.6,49.7,85,70,47,30.07,29.99,4,1,7,0.00
2013-3-29,80.0,65.2,51.6,52.4,49.5,45.8,89,61,33,30.08,29.96,5,2,7,0.00
2013-3-30,76.2,63.9,54.6,56.7,51.3,47.6,86,65,42,30.01,29.93,6,2,10,0.14
2013-3-31,71.5,60.9,55.5,56.9,53.0,46.6,94,77,43,30.07,29.95,9,1,12,0.73
2013-4-1,70.4,61.3,54.5,54.6,52.5,49.8,94,75,50,30.13,30.04,4,1,8,0.01
2013-4-2,75.4,61.3,50.2,56.1,50.8,47.2,90,71,40,30.14,30.02,5,2,9,0.01
2013-4-3,78.2,63.5,51.7,55.8,50.9,45.9,87,66,33,30.11,29.93,2,0,5,0.00
2013-4-4,67.2,59.3,53.1,59.4,52.8,43.4,93,80,53,30.09,29.94,7,3,12,0.52
2013-4-5,70.3,60.3,52.8,54.4,51.7,49.3,91,75,53,30.14,30.06,7,2,8,0.00
2013-4-6,69.8,59.4,51.9,55.4,51.6,48.2,90,76,55,30.16,30.06,5,1,9,0.00
2013-4-7,69.8,58.9,51.2,55.7,49.6,44.9,88,72,54,30.12,29.77,13,4,22,0.00
2013-4-8,69.5,59.4,50.3,49.6,36.3,28.0,90,47,22,29.98,29.71,15,8,25,0.08
2013-4-9,76.8,64.1,49.8,40.1,35.0,30.3,58,36,19,30.05,29.98,12,6,18,0.00
2013-4-10,87.9,69.7,55.8,56.5,45.4,36.4,66,44,23,30.16,29.92,6,2,10,0.00
2013-4-11,81.1,68.1,55.3,53.5,44.5,27.6,82,48,16,29.95,29.77,7,3,13,0.00
2013-4-12,84.0,65.9,49.3,55.6,45.3,36.5,83,53,19,29.87,29.75,4,1,11,0.00
2013-4-13,79.2,63.9,51.8,53.1,47.5,43.6,75,57,29,29.85,29.73,4,1,7,0.00
2013-4-14,76.9,62.2,49.7,47.2,39.8,23.9,75,48,15,29.87,29.71,11,3,16,0.00
2013-4-15,67.2,55.1,47.7,47.0,42.3,31.2,86,64,34,29.89,29.76,11,2,13,0.01
2013-4-16,69.1,58.2,48.1,33.8,28.5,21.8,56,35,17,30.13,29.89,11,7,18,0.00
2013-4-17,71.7,59.3,45.6,34.1,27.9,21.2,60,33,16,30.23,30.13,11,6,17,0.00
2013-4-18,76.9,63.1,47.9,40.9,31.1,19.9,54,33,12,30.25,30.14,5,2,9,0.00
2013-4-19,83.6,67.5,50.9,52.3,44.4,39.7,67,46,24,30.21,30.00,4,1,7,0.00
2013-4-20,85.7,70.7,58.6,48.7,38.2,16.9,53,34,8,30.07,29.91,8,4,15,0.00
2013-4-21,88.4,71.3,54.2,49.6,43.8,36.1,68,42,16,30.00,29.87,5,1,9,0.00
2013-4-22,90.7,74.4,60.7,49.2,40.1,23.6,64,34,9,29.93,29.79,8,4,14,0.00
2013-4-23,85.9,71.8,60.2,44.5,29.9,19.0,51,24,9,29.89,29.78,9,5,15,0.00
2013-4-24,89.6,66.7,53.9,52.6,42.2,25.5,77,48,10,29.84,29.70,8,3,16,0.00
2013-4-25,74.8,61.5,51.7,51.3,47.9,45.8,83,63,39,30.06,29.84,7,4,10,0.00
2013-4-26,82.1,60.6,50.6,52.7,48.6,45.9,86,68,33,30.18,30.06,5,2,8,0.00
2013-4-27,87.9,77.0,62.6,56.6,53.1,50.5,66,46,29,30.06,29.99,6,3,9,0.00
2013-4-28,91.6,72.9,56.4,58.2,50.1,36.4,77,50,16,30.00,29.81,7,2,10,0.00
2013-4-29,91.5,77.0,63.2,55.5,48.3,37.6,71,41,16,29.85,29.69,11,4,16,0.00
2013-4-30,83.7,74.4,65.5,49.4,32.4,21.3,42,24,11,29.82,29.70,15,10,22,0.00
2013-5-1,88.6,74.2,60.2,39.3,27.4,21.2,34,19,9,30.04,29.81,14,8,20,0.00
2013-5-2,91.2,75.1,59.8,39.8,30.4,14.5,35,22,6,30.13,30.00,8,4,10,0.00
2013-5-3,92.4,76.3,59.7,47.4,40.4,29.2,52,31,11,30.02,29.72,8,2,12,0.00
2013-5-4,89.2,74.7,59.9,49.4,41.4,28.5,67,35,12,29.72,29.46,12,6,15,0.00
2013-5-5,76.1,65.1,56.3,50.8,48.0,44.0,74,55,32,29.78,29.53,10,5,18,0.00
2013-5-6,74.0,64.5,59.4,55.9,51.9,48.5,83,65,41,29.93,29.78,10,4,12,0.05
2013-5-7,75.0,65.7,58.9,54.2,51.8,49.9,81,62,42,29.99,29.92,7,3,10,0.00
2013-5-8,74.8,63.5,56.7,53.1,51.2,47.4,84,66,39,30.08,29.98,8,5,13,0.00
2013-5-9,81.9,64.2,52.6,58.0,52.4,48.4,86,68,44,30.10,29.99,9,4,13,0.00
2013-5-10,85.8,67.9,53.5,60.5,54.4,49.1,85,64,41,30.13,30.00,7,3,10,0.00
2013-5-11,94.0,74.8,59.5,61.3,55.4,51.5,76,54,30,30.08,29.96,7,2,10,0.00
2013-5-12,93.0,75.6,62.4,56.0,50.1,39.5,65,44,16,30.07,29.94,9,3,11,0.00
2013-5-13,91.7,73.3,61.3,59.1,51.3,44.1,63,48,20,30.02,29.86,8,3,11,0.00
2013-5-14,88.2,72.0,59.2,57.1,52.9,47.5,75,53,32,29.89,29.81,9,4,13,0.00
2013-5-15,77.7,65.1,55.4,50.3,47.6,45.3,69,55,35,29.98,29.89,10,6,17,0.00
2013-5-16,77.1,64.1,57.1,53.6,50.1,46.9,77,62,39,29.97,29.87,12,6,18,0.00
2013-5-17,76.7,62.8,51.5,50.9,45.4,37.8,80,56,27,30.02,29.91,9,4,14,0.00
2013-5-18,82.3,65.4,50.5,52.9,46.7,37.5,79,55,22,30.09,29.99,8,3,11,0.00
2013-5-19,84.5,72.7,61.1,52.4,44.7,36.3,69,41,19,30.07,29.91,12,6,17,0.00
2013-5-20,90.8,76.1,64.9,48.0,41.7,23.7,46,32,9,29.97,29.84,8,6,12,0.00
2013-5-21,81.5,68.4,58.5,48.4,45.2,41.1,63,45,25,29.90,29.80,12,6,20,0.00
2013-5-22,72.4,60.9,51.2,43.8,29.0,14.2,65,33,11,29.97,29.83,13,8,20,0.00
2013-5-23,74.8,61.4,49.7,43.9,39.5,27.1,73,49,19,29.94,29.84,5,3,10,0.00
2013-5-24,79.4,64.3,50.5,45.4,41.8,28.8,76,48,17,29.97,29.86,8,3,14,0.00
2013-5-25,78.5,63.2,51.6,48.6,45.8,42.7,72,55,30,29.97,29.90,10,5,14,0.00
2013-5-26,79.1,64.2,52.1,52.1,49.1,46.9,84,60,35,30.05,29.97,10,4,13,0.00
2013-5-27,68.2,60.6,53.3,57.3,50.9,46.6,90,71,51,30.05,29.96,8,4,11,0.06
2013-5-28,79.1,66.6,58.7,57.2,53.9,48.5,91,67,36,29.96,29.84,8,3,12,0.00
2013-5-29,82.2,68.4,57.5,55.4,52.4,40.1,87,59,23,29.90,29.81,10,4,15,0.08
2013-5-30,85.5,69.2,54.3,53.6,48.5,39.3,81,52,20,29.92,29.85,9,3,12,0.00
2013-5-31,92.3,75.2,58.2,51.9,46.1,37.5,72,41,15,29.95,29.83,12,4,19,0.00
2013-6-1,95.7,79.6,62.0,55.1,49.5,38.2,67,40,14,29.85,29.68,7,2,10,0.00
2013-6-2,96.0,78.7,64.1,55.1,51.8,46.3,66,42,19,29.69,29.56,8,3,10,0.00
2013-6-3,87.5,72.0,59.4,57.8,53.3,49.3,75,54,32,29.75,29.62,10,4,17,0.00
2013-6-4,82.3,67.4,57.7,56.6,52.7,50.1,77,61,41,29.86,29.75,10,6,15,0.00
2013-6-5,86.1,67.1,55.0,59.4,53.5,49.5,84,64,40,29.94,29.80,8,5,14,0.00
2013-6-6,93.2,70.6,55.3,62.1,55.3,50.5,84,61,35,29.88,29.73,9,4,13,0.00
2013-6-7,103.8,79.5,59.9,65.9,57.6,52.5,78,52,20,29.82,29.63,9,3,14,0.00
2013-6-8,106.9,85.9,68.3,65.0,58.7,54.7,62,42,21,29.68,29.56,9,4,14,0.00
2013-6-9,79.0,68.5,60.7,57.6,54.9,53.1,77,63,46,29.82,29.66,15,10,23,0.00
2013-6-10,72.7,64.9,58.2,54.5,53.1,52.2,82,67,51,29.91,29.77,11,7,16,0.00
2013-6-11,84.1,70.7,56.3,56.6,53.7,50.1,82,58,33,29.94,29.82,7,3,10,0.00
2013-6-12,87.2,72.5,59.8,57.2,50.2,43.4,71,48,22,29.91,29.83,10,4,14,0.00
2013-6-13,85.8,71.0,55.4,50.7,44.7,34.3,71,44,16,30.03,29.91,10,3,12,0.00
2013-6-14,90.1,75.7,65.6,53.7,44.0,31.7,60,35,13,29.92,29.75,11,5,14,0.00
2013-6-15,89.7,73.3,62.3,54.1,47.9,41.8,61,43,19,29.90,29.76,10,5,15,0.00
2013-6-16,90.9,72.9,56.8,53.8,49.9,46.5,73,48,24,29.99,29.89,9,4,13,0.00
2013-6-17,88.5,71.4,57.3,55.0,51.7,49.1,75,52,28,30.01,29.90,13,5,19,0.00
2013-6-18,79.6,66.5,57.3,53.3,50.5,46.2,82,59,32,29.95,29.86,13,6,21,0.00
2013-6-19,80.8,67.1,52.8,50.0,44.4,30.2,79,49,16,30.01,29.92,9,4,13,0.00
2013-6-20,66.3,60.0,57.0,50.8,49.2,47.6,74,67,51,29.94,29.91,3,1,10,0.00
2013-6-21,88.7,80.9,68.1,50.3,43.6,26.7,53,30,11,29.86,29.82,7,5,0,0.00
2013-6-22,93.3,76.0,61.3,52.1,49.1,39.9,70,43,16,29.85,29.74,10,4,0,0.00
2013-6-23,75.4,67.7,61.2,60.7,57.6,52.4,81,70,56,29.78,29.74,11,7,0,0.00
2013-6-24,69.0,64.1,61.4,62.7,58.1,55.5,91,81,68,29.89,29.76,8,4,0,0.13
2013-6-25,78.1,68.6,63.6,68.6,63.5,61.3,94,84,68,29.96,29.86,9,3,12,0.14
2013-6-26,88.2,75.4,62.5,65.2,62.0,58.3,93,66,37,30.01,29.92,8,3,12,0.00
2013-6-27,97.0,79.2,64.0,63.6,59.3,46.2,84,55,18,30.03,29.92,7,3,12,0.00
2013-6-28,103.7,87.1,70.3,65.3,61.1,56.4,71,45,22,29.96,29.80,7,2,12,0.00
2013-6-29,106.6,89.7,73.5,64.6,58.6,48.6,57,38,15,29.85,29.70,8,3,14,0.00
2013-6-30,106.1,87.7,71.7,63.7,59.3,55.9,63,41,21,29.77,29.65,8,3,12,0.00
2013-7-1,105.8,86.9,69.6,64.2,58.7,50.2,63,42,16,29.77,29.70,9,2,12,0.00
2013-7-2,105.5,87.3,75.0,64.7,60.2,54.7,62,42,24,29.81,29.72,10,5,15,0.00
2013-7-3,105.7,85.1,69.6,67.0,60.9,56.2,67,46,25,29.82,29.66,8,3,12,0.00
2013-7-4,108.9,89.6,74.9,65.4,61.2,52.2,63,41,17,29.68,29.55,10,4,15,0.00
2013-7-5,85.6,75.4,65.2,56.7,53.0,48.2,64,47,35,29.69,29.59,10,7,15,0.00
2013-7-6,88.3,69.9,58.4,57.2,53.9,50.0,81,60,30,29.74,29.64,8,5,12,0.00
2013-7-7,94.0,74.6,59.3,57.3,50.6,26.1,77,50,10,29.78,29.69,8,4,12,0.00
2013-7-8,94.7,73.9,58.9,56.5,49.6,35.3,79,49,13,29.90,29.77,8,3,12,0.00
2013-7-9,100.5,82.2,63.2,56.2,51.0,37.9,69,40,12,29.98,29.84,6,2,12,0.00
2013-7-10,97.4,78.7,64.4,58.0,51.1,38.4,67,42,14,29.90,29.79,9,4,14,0.00
2013-7-11,90.6,70.9,56.3,53.4,50.9,40.7,83,54,18,29.87,29.77,9,5,13,0.00
2013-7-12,88.6,70.7,56.9,56.5,53.3,49.9,82,57,28,29.88,29.78,8,5,12,0.00
2013-7-13,95.7,77.8,61.1,55.8,49.3,32.6,70,41,12,29.90,29.81,7,4,12,0.00
2013-7-14,94.8,76.3,61.4,57.0,51.5,44.9,69,45,20,29.92,29.79,8,4,12,0.00
2013-7-15,86.8,68.2,56.7,55.5,52.0,47.1,82,59,27,29.84,29.73,9,5,12,0.00
2013-7-16,79.1,65.0,56.4,54.6,52.8,51.3,84,67,41,29.92,29.79,9,7,15,0.00
2013-7-17,91.9,81.4,66.1,57.6,52.5,39.7,65,40,17,29.98,29.93,8,4,12,0.00
2013-7-18,97.3,76.4,58.9,56.5,52.4,37.2,81,50,13,30.00,29.83,8,3,12,0.00
2013-7-19,100.0,78.6,60.9,59.4,54.9,51.6,77,48,21,29.88,29.70,8,3,12,0.00
2013-7-20,99.1,76.5,61.4,61.1,56.0,52.9,75,53,23,29.78,29.62,7,4,12,0.00
2013-7-23,90.4,82.1,72.2,54.9,50.9,44.1,47,35,21,29.94,29.86,8,4,11,0.00
2013-7-24,98.9,79.9,65.2,60.1,55.4,50.4,68,46,23,29.92,29.79,6,4,10,0.00
2013-7-25,96.6,79.6,67.5,62.6,56.5,52.5,62,47,30,29.92,29.82,10,4,13,0.00
2013-7-26,95.4,75.7,61.8,61.1,56.2,52.8,75,54,30,30.01,29.87,7,5,11,0.00